Temperature
20 20 20 19 17 16 15 13 13 12 12 11 11 11 11 11 11 10 10 10 10 10 9 9 8 8 8 7 7 6 6 5 5 4 4 4 4 4 4 3 3 3 2
19 19 19 18 17 16 15 14 13 12 12 12 13 12 12 12 12 11 10 10 10 10 10 9 9 8 8 7 7 6 6 5 5 4 4 2 3 3 3 3 3 3 2
18 18 18 17 17 16 15 14 13 12 12 12 11 10 10 10 10 11 11 11 10 10 10 10 9 9 8 8 7 7 6 5 5 4 3 3 3 2 1 1 1 1 1
17 17 17 17 16 16 15 14 13 12 12 11 10 10 11 11 13 12 12 11 10 10 10 9 9 8 8 8 7 7 6 5 4 3 3 3 2 2 1 -0 -0 -0 0
17 17 16 16 15 15 14 14 13 12 11 10 10 10 10 11 10 10 9 9 9 9 9 8 8 8 7 7 7 6 5 5 5 4 3 2 1 1 0 -1 -0 -1 -1
17 16 16 15 15 15 14 13 13 12 11 10 9 9 9 9 8 8 8 8 8 8 8 7 7 7 7 6 6 5 4 4 3 3 3 3 2 2 1 0 0 -0 -1
16 15 15 15 14 14 14 13 13 12 11 10 9 9 9 8 8 7 7 7 6 7 7 6 6 6 6 5 4 3 3 2 2 2 2 2 2 2 2 1 0 -1 -2
15 15 14 14 14 13 13 13 13 12 12 11 10 9 8 8 8 7 7 6 6 6 6 5 5 5 5 4 3 2 2 1 1 1 0 0 1 1 1 0 -0 -2 -3
15 14 14 13 13 13 13 13 13 12 12 11 11 10 9 9 8 8 7 6 6 5 5 5 5 4 4 4 3 2 2 1 0 -0 -1 -1 -1 -1 -0 -1 -1 -2 -4
14 13 13 13 13 12 12 12 12 12 12 12 11 11 10 10 9 8 8 7 7 6 5 5 4 4 4 3 2 1 1 -0 -0 -1 -2 -2 -2 -2 -2 -2 -2 -2 -3
13 13 13 12 12 12 12 12 12 12 12 11 11 11 11 10 9 9 9 8 7 6 6 5 4 4 3 3 2 1 0 -0 -1 -2 -2 -3 -3 -3 -3 -3 -3 -3 -4
13 13 12 12 12 11 11 11 11 11 11 11 11 10 10 10 10 9 9 8 8 7 7 6 5 4 3 3 2 1 0 -1 -1 -2 -3 -3 -4 -4 -4 -4 -4 -4 -4
13 12 12 11 11 11 11 10 10 10 10 10 10 10 9 9 9 9 9 8 8 7 7 6 5 5 4 3 2 1 0 -0 -1 -2 -3 -3 -4 -5 -5 -5 -5 -5 -4
13 12 11 11 10 10 10 10 10 9 9 9 9 9 8 8 8 8 8 7 7 7 6 6 5 5 4 3 2 1 -0 -1 -2 -2 -3 -4 -5 -5 -5 -5 -5 -5 -5
12 11 11 10 10 10 9 9 9 8 8 8 8 8 7 7 7 7 6 6 6 6 6 5 5 4 3 3 2 1 -0 -1 -2 -3 -4 -4 -5 -6 -6 -6 -6 -5 -5
11 11 10 10 9 9 8 8 8 8 7 7 7 7 6 6 6 6 6 6 6 5 5 4 4 3 3 3 1 -0 -1 -2 -3 -3 -4 -5 -6 -6 -6 -6 -6 -6 -6
10 10 9 9 8 8 8 7 7 7 7 6 6 6 5 5 5 5 5 5 5 4 4 4 3 3 3 2 0 -1 -3 -3 -4 -4 -5 -6 -6 -7 -7 -6 -6 -6 -6
9 9 8 8 8 7 7 7 6 6 6 5 5 5 4 4 4 4 4 3 3 3 3 3 2 2 2 1 -1 -2 -4 -4 -4 -5 -5 -6 -7 -7 -7 -7 -6 -6 -6
8 8 8 7 7 7 6 6 6 5 5 5 4 4 3 3 3 3 3 2 2 2 2 2 1 1 1 0 -1 -3 -4 -4 -4 -5 -6 -6 -7 -7 -7 -7 -7 -6 -6
7 7 7 6 6 6 5 5 5 4 4 4 3 3 3 2 2 1 1 1 1 1 1 1 1 0 0 -1 -2 -3 -4 -5 -5 -5 -6 -6 -7 -7 -7 -7 -7 -7 -6
6 6 6 6 6 5 5 4 4 4 3 3 2 2 2 1 1 1 0 0 0 -0 -0 -0 -0 -0 -1 -2 -3 -4 -5 -5 -5 -6 -6 -6 -6 -6 -6 -6 -6 -6 -6
6 5 5 5 5 5 4 3 3 3 2 2 1 1 1 0 -0 -0 -0 -0 -1 -1 -1 -1 -1 -1 -2 -2 -3 -4 -5 -5 -6 -6 -6 -6 -6 -6 -6 -6 -6 -6 -6
5 4 4 4 4 4 3 3 2 2 1 1 0 0 -0 -1 -1 -1 -1 -1 -1 -1 -2 -2 -2 -2 -2 -3 -4 -5 -5 -5 -6 -6 -6 -6 -6 -6 -6 -6 -6 -6 -6
4 4 4 3 3 3 2 2 1 1 0 -0 -0 -1 -1 -1 -1 -1 -2 -2 -2 -2 -2 -2 -2 -2 -3 -4 -4 -5 -5 -6 -6 -6 -6 -6 -6 -6 -6 -6 -6 -6 -7
3 3 3 3 2 2 1 1 0 -0 -1 -1 -1 -1 -2 -2 -2 -2 -2 -2 -2 -2 -3 -3 -3 -3 -3 -4 -5 -6 -6 -6 -6 -6 -6 -6 -6 -6 -6 -6 -6 -6 -7
3 3 2 2 1 1 0 -0 -1 -1 -1 -2 -2 -2 -2 -2 -2 -2 -2 -2 -2 -3 -3 -3 -3 -3 -4 -4 -5 -6 -6 -6 -6 -6 -6 -6 -6 -6 -6 -6 -6 -7 -7
Wind_Speed
7 3 7 12 14 15 14 16 17 16 14 13 14 14 14 11 10 12 20 23 24 25 23 14 14 14 11 11 11 8 8 8 5 3 4 6 9 10 9 11 11 13 16
10 8 3 6 10 13 14 14 16 17 15 14 13 10 10 9 10 8 16 23 24 25 25 17 11 11 11 13 13 10 8 7 8 5 3 4 5 9 12 8 8 9 13
9 8 6 1 6 10 13 13 14 16 17 14 8 7 7 7 10 12 14 16 23 25 23 22 15 12 13 14 16 14 14 11 10 8 6 5 8 3 4 9 9 9 7
8 7 6 3 2 7 10 12 12 14 14 15 13 14 15 17 17 12 11 12 18 21 24 22 20 13 13 14 15 16 13 10 9 8 8 6 5 5 3 4 7 10 10
8 8 6 5 2 3 7 9 11 12 12 14 16 15 17 15 10 9 11 14 14 17 20 21 18 16 14 15 14 15 15 14 12 8 6 8 6 5 6 5 5 6 7
9 9 8 6 4 1 3 6 8 10 11 13 15 16 18 14 12 12 13 12 11 13 16 17 16 15 15 15 15 14 16 16 15 12 9 7 6 8 9 11 8 7 6
8 9 9 9 7 4 1 4 7 9 9 11 14 15 16 15 15 13 12 11 11 12 15 17 17 16 16 13 12 15 16 17 16 17 14 12 11 5 8 9 8 8 6
7 8 8 8 7 7 4 2 5 8 9 10 12 13 13 12 12 13 12 12 12 12 12 17 18 18 16 16 15 15 16 14 17 19 17 13 12 10 9 9 7 6 6
7 7 7 7 6 6 5 3 3 5 7 9 10 11 12 12 13 13 12 12 11 10 12 15 17 18 18 17 16 16 17 15 15 16 16 14 11 10 10 9 9 8 7
6 7 6 6 5 4 3 2 2 3 4 6 8 8 10 11 12 11 13 13 12 11 11 12 15 16 17 17 17 16 15 16 16 13 15 16 12 10 10 11 10 10 10
5 5 6 6 6 5 4 3 3 3 4 5 6 8 8 9 10 11 12 12 12 12 13 12 13 15 16 17 17 18 15 18 17 16 17 18 15 13 11 11 10 12 12
4 4 5 7 7 7 7 6 5 4 4 5 6 7 8 8 9 11 11 11 12 12 12 12 13 14 15 16 18 19 19 19 20 19 17 18 16 16 13 13 13 13 13
4 4 5 7 7 8 8 7 7 6 5 5 6 7 8 8 10 10 10 10 11 11 11 12 14 14 14 15 17 18 18 19 19 18 19 18 18 18 16 15 15 13 14
4 5 6 7 8 8 8 8 8 7 7 6 6 8 8 9 9 9 9 10 10 11 12 12 13 13 12 14 15 15 16 16 17 17 18 18 19 18 17 16 16 14 13
6 6 7 8 8 9 9 9 9 9 8 7 8 9 8 8 8 8 9 9 10 11 11 11 12 11 11 12 13 13 15 15 16 16 17 19 23 26 22 17 14 14 13
7 8 9 10 9 10 10 9 9 9 8 9 9 9 8 8 8 9 9 10 10 10 10 11 12 12 12 21 26 20 14 15 16 16 15 17 24 29 34 34 29 23 17
9 10 10 9 9 9 10 10 10 9 9 10 10 10 9 8 9 9 10 10 11 10 11 12 12 14 16 25 27 29 16 15 16 16 15 15 18 25 17 25 32 29 32
11 10 9 8 9 9 10 10 9 10 10 11 11 10 9 9 10 10 10 11 10 10 10 11 12 13 16 24 26 26 18 14 16 16 16 16 15 17 18 16 16 17 17
10 9 8 8 9 9 10 10 10 10 11 11 11 10 9 10 10 11 11 10 9 10 10 9 10 12 14 21 24 24 11 12 14 15 16 17 16 25 29 19 17 18 17
9 8 8 8 9 9 9 10 11 11 11 11 11 10 10 10 11 12 11 9 9 10 9 10 10 11 11 18 22 22 9 11 11 11 15 24 24 26 28 19 16 17 15
9 9 9 8 9 10 10 11 12 12 12 11 11 11 11 11 12 11 10 10 9 9 9 10 9 10 12 16 21 21 10 10 10 11 11 14 26 29 29 24 15 19 15
9 9 8 9 10 10 11 12 12 12 11 11 11 12 11 11 11 11 11 10 9 10 10 10 10 8 9 14 16 21 20 17 12 11 9 12 22 25 26 20 19 23 20
8 8 9 10 11 10 10 13 13 12 12 12 12 11 11 11 11 11 11 10 9 9 9 9 10 8 6 9 18 19 20 21 13 10 16 17 21 21 17 21 22 17 9
9 9 10 12 13 12 11 12 13 13 13 12 12 11 11 12 11 9 8 9 9 10 10 10 10 9 7 6 6 7 9 14 13 10 15 20 21 17 15 13 11 7 6
8 9 10 13 14 13 13 13 13 13 13 12 11 11 11 12 12 10 10 11 10 12 12 10 9 9 9 10 13 9 6 6 8 7 6 7 7 8 7 6 6 6 6
10 11 12 13 15 14 14 13 12 12 12 11 11 10 10 11 11 12 12 14 16 22 22 21 18 13 17 20 18 16 16 16 16 11 6 7 8 8 8 7 7 7 7
Wind_Direction
331 306 190 185 182 183 185 184 186 188 188 194 200 203 210 210 209 207 206 202 201 201 203 204 201 198 199 199 196 192 198 204 183 192 260 256 236 234 232 228 228 231 234
7 7 42 157 177 182 186 186 187 189 193 200 203 204 204 210 214 210 211 207 203 201 205 205 202 201 201 201 200 195 193 197 185 175 188 263 269 234 229 215 216 221 225
26 17 21 84 180 187 189 195 192 193 195 194 192 198 204 209 216 216 215 211 207 205 206 208 206 204 204 208 205 198 196 202 197 186 171 191 227 254 230 215 217 216 215
35 29 22 8 212 203 196 196 196 197 195 192 199 202 209 217 220 217 215 212 212 210 209 209 209 209 210 212 209 206 202 194 199 203 210 200 171 182 250 258 225 219 221
41 31 22 355 315 213 197 198 199 203 198 199 205 211 221 228 227 217 217 216 216 216 214 212 211 214 215 214 211 209 206 206 204 196 188 213 219 195 196 241 241 231 225
35 28 21 10 353 331 192 196 204 213 207 205 209 215 224 227 227 225 224 221 219 218 217 215 215 216 218 217 214 212 212 212 212 210 199 184 186 202 205 220 224 229 231
33 23 16 10 4 353 254 204 210 224 220 216 218 221 226 227 231 232 231 227 226 223 219 217 219 220 220 217 213 215 217 215 214 215 217 212 209 183 189 206 216 225 229
39 30 21 16 10 6 351 261 225 228 226 225 226 226 226 228 235 234 233 234 233 229 217 215 219 221 219 220 218 220 221 219 220 221 219 220 217 209 201 200 199 224 234
44 33 22 19 16 13 4 350 297 255 236 230 231 230 229 229 233 233 233 239 239 232 218 214 216 219 219 219 219 224 224 221 222 223 221 223 221 216 213 209 203 207 230
46 32 16 9 11 8 357 360 334 293 267 247 238 237 234 233 233 232 235 237 238 234 227 219 217 217 218 218 220 225 223 222 223 220 220 222 221 219 216 217 216 215 225
50 30 7 358 359 355 351 340 305 281 274 268 260 252 246 241 238 238 239 238 238 234 232 228 223 220 219 218 221 224 220 223 225 221 220 222 216 219 219 218 219 222 225
54 28 5 351 349 344 338 333 317 296 270 256 258 261 259 251 245 245 245 241 240 237 235 232 230 228 223 219 220 224 223 223 224 222 220 221 218 219 218 219 221 225 226
38 13 357 343 338 333 329 325 319 310 292 269 260 263 262 258 253 251 248 244 242 242 237 233 234 232 226 222 222 223 224 225 224 221 220 220 216 219 219 220 222 227 231
2 357 343 332 326 321 319 316 316 311 305 293 278 271 266 263 263 262 257 251 245 243 241 238 237 234 228 226 226 224 224 224 224 221 221 219 217 218 218 221 223 226 230
338 340 331 322 319 318 316 316 315 313 311 305 295 284 276 273 274 274 272 267 259 253 247 244 242 236 231 231 228 226 226 225 224 223 222 221 221 221 221 223 223 223 228
332 333 326 321 319 318 316 316 312 310 311 305 295 289 285 280 277 274 272 270 265 258 251 246 245 243 240 246 245 239 230 228 227 227 225 224 230 231 231 231 228 223 223
336 327 320 318 318 316 315 314 308 310 311 304 297 292 286 281 277 275 273 269 264 257 252 247 244 245 247 252 253 249 237 226 228 228 226 228 228 230 231 238 240 237 234
325 318 316 317 314 313 314 312 313 313 309 303 299 297 293 288 284 279 275 272 267 262 257 251 246 246 250 255 257 255 247 231 226 225 224 225 225 226 225 227 233 240 245
316 313 315 317 317 315 314 315 311 307 305 302 299 299 297 294 291 286 281 277 273 271 265 259 251 250 254 258 260 257 243 236 230 224 222 222 224 229 230 227 227 234 240
318 321 323 320 314 310 314 312 305 304 302 300 301 302 301 298 292 287 285 283 278 275 273 267 258 255 254 259 262 259 242 239 237 229 224 226 225 228 231 228 224 230 235
318 321 321 314 308 310 312 305 302 299 297 300 303 302 298 294 292 289 285 284 281 280 278 275 268 260 259 266 264 261 242 234 237 235 226 222 229 231 231 230 226 233 235
316 319 315 307 305 307 307 302 299 298 300 302 301 299 296 296 297 292 289 285 284 284 283 281 278 267 264 268 266 263 258 248 235 234 226 220 227 232 234 234 234 238 244
311 310 307 304 303 303 302 302 302 305 305 302 300 299 298 298 296 293 292 291 287 283 283 281 283 279 263 262 267 266 263 259 247 232 227 224 228 229 233 237 238 241 238
305 306 306 304 302 302 302 302 306 307 305 303 302 301 302 301 296 290 287 288 287 284 283 283 283 281 274 260 249 248 262 264 260 249 235 229 227 223 221 228 240 234 226
300 302 300 300 301 306 307 305 305 306 304 302 301 301 298 298 297 291 287 286 278 280 286 280 274 280 280 271 268 257 239 234 241 237 220 213 214 213 206 205 214 218 228
301 303 301 302 304 305 303 302 302 304 305 305 303 301 299 298 295 295 293 283 282 290 290 286 281 276 275 279 276 273 268 257 245 237 221 211 208 208 206 208 213 216 221
Height
1477 1476 1475 1477 1479 1482 1485 1486 1488 1489 1492 1494 1495 1496 1497 1499 1501 1502 1504 1505 1507 1509 1511 1512 1513 1514 1514 1515 1517 1518 1518 1518 1519 1518 1517 1515 1515 1514 1514 1514 1514 1513 1512
1476 1475 1475 1475 1476 1478 1480 1481 1482 1483 1484 1486 1487 1489 1491 1493 1494 1496 1496 1497 1498 1499 1501 1503 1504 1506 1506 1507 1508 1509 1509 1510 1511 1511 1510 1508 1506 1503 1505 1505 1505 1506 1505
1478 1476 1475 1475 1475 1475 1475 1476 1477 1478 1478 1480 1483 1484 1485 1485 1486 1485 1486 1488 1489 1490 1491 1493 1495 1496 1497 1497 1498 1499 1500 1500 1501 1501 1503 1501 1497 1497 1495 1495 1496 1498 1497
1479 1478 1476 1475 1474 1473 1473 1473 1473 1473 1474 1475 1475 1475 1475 1473 1473 1476 1478 1480 1482 1482 1483 1484 1485 1486 1487 1487 1488 1489 1490 1491 1490 1490 1490 1491 1492 1491 1488 1487 1487 1488 1488
1480 1478 1476 1475 1473 1471 1470 1469 1469 1469 1470 1470 1470 1470 1469 1468 1471 1472 1472 1472 1473 1474 1474 1475 1475 1476 1476 1476 1478 1478 1479 1479 1480 1479 1479 1480 1481 1481 1481 1478 1477 1478 1478
1480 1478 1476 1474 1472 1469 1468 1466 1466 1465 1466 1466 1465 1464 1463 1464 1465 1465 1464 1465 1465 1464 1465 1465 1465 1465 1466 1466 1467 1468 1469 1468 1469 1470 1469 1468 1468 1467 1468 1467 1466 1468 1469
1479 1477 1475 1473 1471 1468 1466 1464 1463 1462 1462 1462 1461 1460 1459 1460 1459 1459 1459 1459 1458 1456 1455 1456 1456 1455 1456 1456 1457 1458 1457 1457 1457 1457 1457 1457 1456 1458 1459 1459 1458 1458 1459
1478 1477 1475 1473 1471 1468 1466 1463 1461 1460 1458 1457 1456 1455 1455 1454 1452 1452 1452 1451 1450 1449 1449 1448 1447 1446 1446 1447 1447 1447 1446 1447 1446 1446 1446 1447 1446 1448 1448 1450 1451 1450 1449
1477 1476 1475 1473 1471 1468 1466 1463 1461 1458 1456 1454 1452 1451 1449 1448 1446 1445 1444 1443 1442 1442 1442 1440 1438 1437 1437 1436 1437 1436 1435 1436 1435 1435 1436 1437 1437 1439 1439 1441 1442 1443 1439
1476 1475 1474 1473 1471 1468 1465 1463 1460 1457 1454 1452 1449 1447 1444 1442 1440 1438 1435 1433 1433 1433 1432 1431 1429 1428 1426 1426 1426 1424 1424 1424 1423 1425 1426 1426 1427 1429 1431 1431 1432 1432 1431
1475 1475 1474 1472 1470 1468 1465 1462 1458 1455 1452 1449 1446 1443 1440 1437 1434 1431 1428 1426 1424 1423 1422 1421 1420 1418 1416 1415 1415 1413 1413 1413 1413 1413 1414 1414 1417 1418 1420 1422 1423 1423 1422
1474 1473 1472 1471 1468 1466 1463 1460 1456 1453 1449 1445 1442 1438 1435 1432 1428 1425 1422 1419 1416 1414 1412 1411 1409 1408 1406 1405 1403 1402 1401 1401 1400 1401 1402 1403 1406 1407 1410 1411 1412 1412 1413
1472 1471 1470 1468 1466 1463 1460 1456 1453 1449 1445 1441 1437 1433 1429 1425 1422 1418 1415 1411 1408 1406 1403 1401 1399 1397 1396 1395 1393 1391 1391 1390 1389 1390 1391 1392 1395 1395 1398 1400 1401 1403 1404
1470 1469 1467 1465 1463 1460 1456 1453 1449 1445 1440 1436 1432 1427 1423 1419 1415 1411 1407 1404 1400 1397 1394 1392 1390 1388 1386 1384 1383 1381 1380 1379 1379 1379 1380 1381 1383 1384 1388 1390 1391 1393 1394
1468 1466 1464 1461 1459 1455 1452 1448 1444 1439 1435 1430 1426 1421 1417 1412 1408 1404 1400 1396 1392 1389 1386 1383 1380 1378 1376 1374 1372 1371 1370 1368 1368 1368 1369 1370 1372 1374 1377 1379 1381 1383 1384
1465 1463 1460 1457 1454 1450 1446 1442 1438 1434 1429 1424 1419 1414 1410 1405 1401 1396 1392 1388 1384 1380 1377 1373 1371 1368 1365 1364 1362 1360 1357 1357 1356 1356 1357 1359 1362 1364 1368 1370 1371 1373 1373
1462 1459 1457 1453 1449 1446 1441 1437 1432 1428 1423 1418 1413 1408 1403 1398 1393 1389 1384 1379 1375 1371 1367 1364 1361 1358 1356 1354 1352 1350 1348 1345 1344 1345 1346 1348 1350 1354 1357 1360 1363 1364 1365
1459 1456 1452 1448 1445 1441 1436 1432 1427 1422 1417 1412 1407 1402 1397 1391 1386 1381 1376 1371 1367 1363 1359 1355 1352 1348 1346 1345 1342 1341 1340 1337 1335 1335 1336 1338 1340 1343 1346 1349 1351 1353 1355
1455 1452 1448 1444 1440 1436 1431 1426 1421 1416 1411 1406 1401 1396 1390 1384 1379 1374 1369 1364 1360 1355 1351 1348 1344 1340 1337 1336 1334 1332 1330 1328 1326 1325 1326 1328 1330 1333 1338 1341 1341 1343 1344
1451 1447 1443 1439 1435 1431 1426 1421 1415 1410 1405 1400 1394 1389 1383 1378 1372 1367 1362 1357 1353 1348 1344 1339 1336 1332 1329 1327 1325 1324 1321 1319 1318 1318 1318 1319 1321 1324 1329 1332 1333 1334 1335
1446 1442 1438 1434 1430 1426 1421 1415 1410 1404 1399 1393 1387 1382 1376 1371 1365 1360 1355 1350 1345 1341 1336 1332 1328 1325 1321 1318 1316 1315 1313 1310 1310 1310 1309 1311 1314 1317 1320 1323 1325 1326 1329
1441 1438 1434 1430 1425 1421 1415 1409 1403 1398 1392 1386 1380 1374 1369 1364 1358 1353 1348 1343 1339 1333 1328 1324 1319 1316 1314 1311 1308 1306 1305 1304 1302 1302 1303 1304 1308 1311 1314 1316 1318 1320 1322
1437 1434 1429 1424 1420 1415 1410 1403 1397 1391 1385 1378 1372 1367 1361 1356 1352 1347 1341 1336 1332 1327 1321 1317 1311 1308 1305 1303 1301 1299 1297 1296 1296 1295 1296 1299 1301 1304 1307 1310 1312 1314 1315
1433 1429 1424 1418 1413 1408 1403 1397 1390 1384 1377 1371 1365 1360 1354 1349 1344 1340 1335 1330 1325 1320 1315 1310 1305 1301 1298 1295 1293 1291 1290 1289 1288 1289 1290 1293 1296 1298 1301 1303 1305 1307 1307
1428 1424 1419 1412 1406 1401 1395 1390 1384 1377 1370 1364 1358 1353 1347 1342 1337 1332 1329 1324 1319 1315 1310 1304 1300 1295 1290 1288 1287 1285 1282 1281 1281 1283 1284 1287 1290 1292 1294 1296 1298 1300 1301
1423 1418 1412 1406 1399 1393 1387 1382 1377 1371 1364 1357 1351 1346 1340 1335 1330 1325 1320 1316 1313 1307 1303 1299 1294 1289 1286 1282 1280 1279 1278 1277 1277 1279 1279 1281 1284 1286 1288 1290 1292 1293 1294